Zurück zum Katalog

ATLAS 5 CENTAUR DEB

LostHEO
NORAD 49357·DEBRIS·🇺🇸 United States

Gestartet Oct 17, 2018 von Cape Canaveral Space Force Station

Loading…

Nächste Überflüge (nächste 24 Stunden)

TLE

VeraltetSource: Space-Track

Epoche: Mar 22, 2024, 03:55 UTC

1 49357U 18079FJ  24082.16382491 -.00000132  00000-0  00000+0 0  9999
2 49357  12.1535  79.1810 4428527 258.9304  49.7220  2.10148217 19657

Verfolge ATLAS 5 CENTAUR DEB in Echtzeit mit AllMySat

Download on the App Store